User: anonymous   Login
Location: Cormont
(50.5693°N, 1.7416°E)
Time: 02:35:08
(UTC+00:00)
Language:

STARLINK-21 - Orbit

View from above orbital plane
View from above orbital plane
View from above satellite
View from above satellite

Ground track
Ground track

The orbit data is extracted from the following two-line orbital elements,

1 44245U 19029L   19339.50001157  .00041607  00000-0  23923-2 0  9993
2 44245  52.9996  14.7708 0001532  95.3970 189.3548 15.12096084 29579
Epoch (UTC): 05 December 2019 12:00:01
Eccentricity: 0.0001532
inclination: 52.9996°
perigee height: 529 km
apogee height: 531 km
right ascension of ascending node: 14.7708°
argument of perigee: 95.3970°
revolutions per day: 15.12096084
mean anomaly at epoch: 189.3548°
orbit number at epoch: 2957

The dashed part of the orbit path shows where the satellite is in the earth's shadow,  

DLR